Wind_Speed
19 21 21 23 21 20 19 18 18 16 17 19 23 23 20 16 12 9 5 3 2 2 4 4 5 2 4 5 12 8 7 13 18 23 26 21 26 21 8 7 11 9 11 24 10 15 21
18 20 21 23 21 20 18 19 18 16 16 18 20 22 18 14 8 7 5 3 3 1 1 3 4 2 5 4 5 14 8 14 21 31 34 23 22 23 12 11 8 10 15 16 21 23 24
18 19 21 23 21 20 19 19 20 18 15 16 18 19 15 12 8 3 4 7 3 3 3 3 4 2 6 9 9 10 9 8 26 36 35 26 21 19 11 5 12 8 7 5 8 16 7
17 18 20 21 20 21 20 20 20 19 19 16 16 16 14 11 9 3 3 3 4 6 7 4 3 2 5 9 10 10 10 11 23 27 24 25 27 11 5 6 8 5 5 5 9 16 6
16 17 19 20 20 20 20 21 21 19 18 17 14 13 12 9 6 4 3 2 3 5 5 4 3 2 3 4 13 5 8 11 20 28 22 26 23 6 4 6 4 3 7 6 9 23 8
15 16 18 19 19 20 18 20 21 21 21 19 16 11 8 6 6 7 6 3 1 2 2 2 4 3 4 6 2 4 1 4 16 22 19 20 8 3 3 7 16 7 6 6 8 9 5
15 15 17 19 19 19 21 20 21 22 21 23 18 11 6 5 4 7 7 1 3 3 3 3 4 3 6 9 4 6 6 9 13 18 7 11 4 11 6 4 3 5 5 4 1 4 4
15 14 15 18 19 19 22 21 22 22 24 21 22 14 6 3 2 2 5 3 2 2 2 7 5 5 5 6 4 7 4 5 3 12 11 5 9 5 7 7 4 7 5 5 0 2 8
15 14 15 18 19 20 22 23 22 23 23 24 23 17 6 3 3 1 1 1 2 5 2 3 7 7 4 6 4 2 7 3 6 12 17 12 7 8 5 4 7 2 7 4 4 3 3
15 14 15 18 19 21 21 24 26 26 25 23 23 17 6 3 4 3 1 3 3 6 2 5 4 6 4 4 6 4 6 7 5 7 14 4 3 8 4 3 4 3 4 4 2 4 4
15 14 16 18 20 21 22 24 26 28 24 20 22 15 6 4 3 3 2 3 6 4 4 2 2 3 5 4 9 2 11 5 5 8 6 3 8 11 4 4 4 2 3 4 3 3 2
15 14 16 18 21 22 26 25 25 26 24 19 18 11 3 2 1 3 2 1 4 5 3 4 1 3 2 4 4 1 1 8 6 10 11 4 5 4 2 3 2 6 6 7 4 3 2
15 13 16 18 21 22 26 29 24 26 22 16 15 4 1 0 1 3 2 2 4 5 3 4 1 1 4 1 3 1 3 3 4 6 4 5 4 2 3 6 3 2 5 3 2 1 4
14 12 14 17 20 23 26 26 25 26 21 16 9 1 1 1 2 4 6 4 6 4 4 2 1 7 3 3 4 3 2 3 3 5 4 4 4 3 3 3 5 3 3 5 6 4 4
12 12 12 16 20 23 26 24 25 25 20 11 3 4 2 1 3 5 1 4 7 6 4 4 1 2 1 2 5 1 2 3 4 2 5 4 2 2 2 1 2 4 4 4 5 2 3
12 11 12 15 19 23 23 23 24 23 19 10 3 4 2 2 4 1 3 2 2 3 1 1 3 4 3 5 5 3 3 3 3 3 2 2 4 2 2 2 2 2 1 1 2 3 4
11 11 12 15 18 21 21 22 22 22 16 5 4 3 1 1 4 1 2 4 3 5 2 2 2 2 4 5 3 5 9 1 3 5 5 4 3 5 6 6 8 3 3 3 2 4 5
11 10 12 14 17 19 19 21 21 19 14 1 3 2 2 3 1 2 1 4 1 0 1 2 1 2 4 7 5 4 6 4 11 10 7 4 3 3 5 2 2 7 6 6 4 5 3
10 10 10 13 16 18 18 20 19 17 11 3 2 2 2 0 2 2 3 2 1 0 2 1 2 1 1 2 4 3 3 1 13 6 6 6 1 3 2 4 1 5 7 7 3 1 6
11 9 8 11 14 16 17 17 17 16 8 1 0 1 2 2 3 2 2 3 2 1 2 3 2 1 1 2 5 4 3 3 9 11 13 12 4 6 6 4 4 7 11 15 10 4 7
10 7 6 10 12 15 15 15 15 14 7 0 2 1 1 1 1 3 2 2 2 1 2 1 2 2 1 1 2 2 3 4 3 7 4 5 5 4 5 4 5 6 7 15 17 21 7
9 6 5 8 11 12 13 13 14 14 5 4 1 2 1 2 7 4 4 3 1 1 3 0 2 3 2 2 5 6 4 3 3 1 4 1 2 2 3 4 3 5 7 10 18 19 21
9 5 4 6 9 9 11 12 13 15 11 5 3 3 2 3 3 0 2 4 4 4 1 1 2 2 1 2 1 2 6 6 6 7 3 3 4 3 3 4 5 7 10 13 7 7 14
10 4 5 4 6 5 9 12 14 14 15 12 8 3 2 1 2 1 4 4 7 6 3 6 2 1 2 1 2 6 7 6 7 3 6 5 5 3 2 3 2 6 3 6 12 12 12
10 6 5 2 4 5 7 9 12 12 11 13 12 3 1 1 2 2 6 3 7 9 3 4 4 3 3 1 3 3 4 3 1 4 5 4 4 2 3 3 7 4 1 4 5 6 6
11 8 6 1 4 4 6 7 10 10 10 8 10 8 3 4 2 1 2 3 2 3 6 4 3 5 3 2 2 3 4 4 2 1 1 2 2 4 1 1 4 5 4 2 3 4 2
13 11 7 3 2 4 4 5 6 9 10 8 6 9 4 3 1 2 2 1 3 3 2 3 10 5 3 2 1 2 3 3 3 4 4 3 2 5 4 3 7 7 6 1 3 5 9
14 13 8 5 2 3 4 5 7 8 8 7 4 6 8 4 4 4 2 4 6 2 2 5 1 1 3 2 2 2 2 3 1 0 5 5 5 3 4 4 7 2 1 4 5 7 9
18 14 9 6 3 2 3 4 6 7 8 8 6 7 8 3 3 10 4 3 4 10 7 2 4 3 4 1 1 0 2 1 2 2 2 2 6 4 7 5 6 4 9 8 9 9 8
Wind_Direction
356 358 0 359 357 356 350 345 342 342 351 346 344 357 360 10 19 23 32 56 9 350 2 349 330 322 204 224 244 243 153 219 218 204 212 192 187 198 180 165 152 184 203 221 206 190 226
352 355 360 358 358 356 355 343 342 341 344 346 348 357 3 10 13 32 28 357 326 327 340 3 343 291 218 248 298 257 243 235 217 202 203 188 194 183 190 177 176 167 168 169 172 194 207
347 351 357 356 359 356 352 351 345 344 347 342 347 352 359 357 349 6 347 330 294 253 295 303 326 276 258 266 288 283 299 228 213 205 199 196 185 183 157 124 170 147 113 131 167 165 163
343 346 353 357 357 359 356 354 353 345 345 346 341 350 355 359 3 347 346 350 322 303 296 292 278 288 266 356 315 254 330 156 185 186 195 179 177 159 134 146 135 111 128 159 193 175 185
339 343 347 353 356 360 357 354 357 349 348 345 338 345 353 355 353 358 6 341 353 18 89 90 62 309 313 32 347 248 21 157 168 173 193 177 177 179 109 125 80 182 186 178 163 185 157
336 339 339 347 353 354 356 353 349 347 350 346 344 334 346 347 330 325 326 287 312 33 61 28 5 326 33 320 2 168 281 121 174 178 183 170 148 127 105 171 185 183 180 177 172 185 173
332 332 333 337 347 351 348 347 347 348 344 344 345 328 327 329 332 331 342 310 270 284 27 5 319 315 328 39 60 74 12 119 153 157 164 168 152 193 156 132 162 111 92 123 155 177 143
327 327 328 331 338 345 342 342 347 347 345 344 339 335 298 284 302 344 350 42 35 353 330 31 33 352 32 14 27 34 77 93 150 179 137 151 200 155 146 134 143 154 131 183 2 196 173
321 321 322 327 334 339 342 341 343 341 342 339 340 337 298 228 235 216 332 99 30 358 284 15 49 37 17 35 54 62 107 316 221 166 172 163 153 142 163 101 123 73 145 169 176 112 75
315 317 318 324 332 334 337 339 337 334 336 337 334 337 318 230 248 219 280 271 282 333 68 15 346 29 21 89 41 216 210 239 156 186 151 107 166 143 153 120 113 102 168 160 128 116 206
309 312 316 324 331 334 338 341 330 330 334 332 328 330 314 219 210 203 209 266 308 310 43 15 10 11 45 93 139 309 242 195 120 138 158 153 146 144 144 162 129 172 123 161 125 105 93
304 309 314 323 329 338 336 343 333 332 334 331 327 326 299 245 200 178 169 217 347 41 299 336 50 11 94 357 164 129 188 95 133 87 69 74 74 67 107 71 100 145 82 53 58 94 284
298 305 311 321 332 338 337 338 339 338 339 333 324 323 286 164 113 168 219 136 36 92 308 294 72 175 102 176 34 5 104 63 95 110 95 43 28 41 57 84 18 103 91 26 13 327 226
292 298 308 322 333 336 338 337 342 344 340 339 328 161 20 80 148 134 122 68 71 237 208 244 190 142 111 174 52 6 64 69 12 79 89 134 166 158 6 135 163 119 168 157 191 201 235
284 290 305 321 330 336 338 342 345 349 347 344 313 171 113 69 133 140 164 69 186 197 184 186 159 113 94 105 116 360 25 165 172 180 121 125 95 60 27 33 57 167 178 166 103 39 46
277 287 304 321 331 338 339 342 346 352 351 344 184 169 135 87 163 146 73 229 140 222 294 154 218 178 150 167 141 176 185 174 172 152 93 168 104 194 96 68 57 47 95 98 19 154 249
272 284 304 321 333 337 340 342 348 349 356 356 141 157 152 73 158 317 141 232 243 235 208 169 263 239 156 163 149 174 181 247 158 140 99 125 93 168 137 208 196 147 172 238 195 169 189
265 281 304 325 334 337 343 345 347 347 354 21 184 64 169 157 255 221 183 200 249 159 177 278 168 285 178 154 157 189 182 239 176 136 147 190 126 157 198 217 239 208 199 180 209 228 226
256 276 308 328 335 341 349 348 348 348 346 359 187 108 145 25 10 314 289 278 239 172 260 248 231 184 287 192 117 118 120 36 154 147 152 155 131 97 40 348 328 224 205 218 213 39 206
247 275 307 328 336 341 352 355 355 353 346 37 26 73 98 232 264 275 322 254 268 207 253 275 290 29 358 48 34 135 127 160 153 165 194 167 147 170 189 206 148 201 209 210 207 210 215
244 265 303 333 334 344 356 6 6 1 1 295 37 62 39 273 293 336 301 250 203 264 205 293 301 187 236 204 50 120 133 138 115 144 121 147 181 160 228 224 172 195 198 204 221 227 227
235 243 310 324 342 357 3 18 21 18 11 30 80 63 75 320 316 315 12 349 245 289 152 232 235 355 202 213 200 203 144 179 186 112 126 57 154 107 329 345 249 257 238 218 227 236 245
217 219 301 318 357 9 22 24 28 33 39 52 76 101 155 325 345 10 33 313 12 339 226 117 219 354 206 210 74 301 179 177 171 149 132 111 125 77 276 341 323 288 226 207 204 220 226
204 202 271 323 12 27 32 27 29 32 40 39 54 98 142 246 88 54 354 321 349 334 288 325 20 121 314 220 109 78 73 86 151 124 143 133 112 108 216 13 332 241 202 198 217 241 219
189 213 239 328 48 39 29 27 32 35 33 29 33 19 98 91 333 3 359 353 348 341 323 305 359 11 339 128 61 43 352 12 231 178 174 147 136 103 130 193 291 318 25 152 173 274 228
186 204 211 110 72 36 30 33 35 31 19 17 14 15 355 123 257 54 341 359 6 335 338 331 356 342 4 80 108 171 213 219 225 171 68 159 64 121 149 206 255 246 310 209 136 302 285
192 196 190 140 106 39 34 31 22 10 6 9 17 13 356 350 170 24 77 5 348 334 269 331 336 353 25 86 77 176 250 203 177 202 160 158 137 167 208 253 282 255 288 201 73 254 323
191 192 178 159 148 46 42 27 21 15 17 18 25 13 21 334 299 181 111 327 312 266 287 342 321 346 350 117 167 234 202 237 133 209 172 171 166 182 182 206 270 226 112 172 228 310 315
189 184 177 170 157 75 48 34 17 21 27 5 25 349 351 311 301 303 352 21 288 258 278 338 122 248 349 257 130 113 292 19 170 251 33 214 186 189 178 212 235 253 246 268 299 288 310
Height
1541 1537 1533 1529 1525 1521 1517 1514 1510 1507 1505 1502 1496 1490 1485 1481 1477 1475 1474 1472 1471 1472 1471 1470 1469 1469 1470 1471 1468 1468 1468 1472 1475 1480 1483 1489 1492 1499 1498 1502 1504 1507 1507 1516 1518 1524 1525
1541 1536 1533 1528 1523 1519 1517 1513 1508 1505 1503 1500 1496 1490 1486 1482 1479 1476 1476 1474 1472 1471 1471 1470 1469 1469 1470 1470 1465 1465 1467 1469 1471 1475 1480 1487 1490 1496 1499 1501 1503 1504 1506 1512 1518 1521 1524
1540 1536 1532 1528 1523 1519 1515 1512 1508 1504 1501 1498 1495 1490 1485 1482 1479 1477 1476 1475 1473 1471 1470 1470 1469 1468 1469 1468 1465 1464 1464 1463 1467 1473 1478 1485 1491 1496 1497 1501 1503 1504 1511 1515 1515 1518 1524
1539 1536 1532 1527 1522 1519 1515 1511 1506 1503 1498 1496 1493 1491 1486 1482 1479 1477 1475 1474 1473 1471 1469 1469 1469 1468 1466 1466 1463 1461 1461 1463 1467 1473 1480 1486 1491 1493 1496 1498 1502 1507 1514 1519 1514 1515 1520
1538 1535 1531 1526 1522 1518 1514 1510 1505 1500 1497 1493 1489 1487 1485 1482 1480 1478 1476 1475 1474 1471 1469 1469 1469 1469 1466 1466 1461 1460 1461 1463 1468 1473 1476 1488 1489 1493 1495 1500 1508 1508 1515 1513 1512 1510 1511
1536 1533 1529 1525 1521 1517 1513 1509 1504 1500 1496 1492 1489 1485 1483 1481 1480 1479 1478 1476 1475 1473 1471 1470 1469 1471 1468 1468 1465 1463 1465 1465 1468 1470 1477 1483 1489 1493 1496 1499 1498 1504 1506 1507 1506 1508 1511
1534 1531 1527 1524 1520 1517 1512 1507 1503 1499 1496 1490 1486 1483 1481 1480 1480 1479 1478 1477 1479 1476 1471 1471 1470 1469 1467 1466 1465 1464 1466 1467 1470 1473 1476 1483 1488 1489 1493 1496 1497 1501 1504 1508 1507 1503 1508
1533 1529 1525 1522 1518 1515 1510 1506 1502 1499 1493 1489 1486 1481 1479 1479 1478 1478 1478 1477 1478 1478 1474 1470 1469 1469 1468 1466 1465 1466 1468 1471 1473 1474 1478 1487 1488 1491 1492 1494 1498 1502 1508 1511 1507 1505 1509
1530 1527 1523 1520 1516 1513 1509 1504 1501 1495 1491 1486 1482 1478 1477 1477 1476 1477 1477 1477 1477 1478 1476 1472 1470 1471 1471 1470 1470 1470 1474 1477 1475 1476 1478 1481 1485 1490 1492 1497 1501 1505 1510 1512 1511 1509 1512
1527 1525 1521 1518 1514 1511 1507 1503 1498 1494 1489 1485 1480 1478 1475 1476 1479 1476 1478 1477 1477 1478 1482 1475 1471 1474 1473 1471 1472 1472 1476 1479 1476 1481 1478 1485 1487 1491 1495 1498 1501 1507 1504 1508 1509 1513 1523
1525 1522 1519 1516 1513 1509 1505 1501 1496 1491 1486 1482 1477 1475 1473 1472 1473 1475 1477 1477 1477 1477 1486 1473 1475 1473 1474 1474 1477 1476 1473 1475 1474 1475 1481 1489 1488 1493 1497 1498 1499 1505 1503 1508 1512 1518 1517
1522 1520 1516 1513 1510 1507 1502 1499 1493 1488 1483 1479 1475 1473 1472 1474 1472 1474 1473 1475 1477 1490 1497 1475 1474 1474 1474 1472 1473 1475 1472 1473 1475 1476 1480 1489 1491 1494 1498 1499 1499 1503 1508 1515 1522 1526 1538
1520 1517 1514 1511 1507 1504 1500 1495 1490 1485 1480 1475 1472 1471 1470 1471 1471 1471 1472 1474 1486 1494 1480 1477 1470 1474 1472 1473 1474 1471 1472 1473 1474 1481 1487 1492 1497 1499 1499 1501 1502 1504 1510 1536 1539 1535 1534
1517 1514 1511 1508 1505 1501 1497 1492 1487 1482 1477 1474 1471 1471 1471 1470 1470 1469 1469 1475 1488 1479 1478 1471 1468 1471 1472 1471 1476 1473 1474 1477 1475 1477 1489 1495 1502 1500 1502 1502 1504 1507 1509 1528 1528 1533 1528
1514 1511 1508 1506 1503 1499 1494 1490 1485 1480 1475 1472 1469 1469 1471 1470 1470 1469 1472 1484 1478 1476 1469 1472 1472 1468 1472 1471 1477 1477 1478 1480 1480 1480 1489 1501 1503 1503 1503 1504 1506 1509 1513 1514 1528 1532 1547
1511 1508 1506 1503 1500 1497 1492 1487 1483 1478 1474 1470 1469 1469 1470 1471 1470 1471 1473 1472 1471 1466 1465 1467 1470 1467 1470 1472 1475 1477 1479 1476 1478 1479 1480 1490 1505 1502 1506 1505 1507 1507 1511 1518 1534 1537 1525
1508 1506 1503 1500 1498 1494 1490 1485 1482 1477 1472 1469 1470 1470 1469 1470 1474 1473 1481 1477 1467 1464 1465 1466 1467 1467 1466 1469 1471 1475 1478 1476 1475 1480 1482 1489 1496 1507 1506 1504 1501 1509 1508 1513 1513 1520 1520
1505 1503 1502 1499 1496 1493 1488 1484 1480 1476 1471 1470 1469 1471 1470 1471 1473 1472 1476 1468 1464 1463 1464 1465 1465 1465 1466 1467 1471 1471 1473 1473 1473 1477 1485 1487 1497 1498 1501 1501 1501 1501 1502 1508 1509 1515 1522
1502 1501 1499 1497 1494 1491 1487 1483 1479 1475 1471 1469 1468 1470 1472 1473 1476 1475 1467 1465 1464 1464 1465 1464 1463 1464 1464 1464 1469 1470 1472 1471 1473 1476 1480 1485 1497 1500 1502 1504 1499 1499 1497 1499 1502 1507 1514
1498 1497 1496 1494 1493 1489 1485 1482 1478 1473 1470 1470 1470 1473 1473 1471 1469 1469 1468 1465 1465 1461 1462 1463 1462 1462 1463 1464 1465 1470 1473 1475 1475 1478 1481 1483 1493 1496 1497 1490 1492 1494 1492 1494 1495 1498 1487
1495 1495 1494 1492 1491 1487 1483 1481 1478 1473 1470 1472 1471 1473 1473 1475 1472 1469 1468 1463 1464 1463 1462 1463 1463 1462 1464 1465 1465 1468 1471 1474 1474 1475 1478 1481 1492 1497 1490 1486 1489 1490 1489 1487 1488 1480 1485
1492 1492 1492 1491 1489 1486 1483 1481 1478 1473 1471 1471 1472 1473 1473 1472 1471 1470 1466 1461 1462 1462 1461 1462 1466 1464 1463 1466 1466 1469 1469 1469 1469 1473 1475 1479 1494 1493 1496 1485 1484 1485 1483 1483 1479 1478 1478
1489 1490 1489 1490 1488 1485 1482 1480 1478 1474 1472 1471 1472 1472 1472 1472 1471 1471 1471 1469 1466 1465 1462 1460 1462 1464 1464 1463 1463 1463 1463 1463 1464 1470 1475 1479 1488 1499 1504 1493 1489 1487 1475 1476 1474 1471 1471
1486 1487 1488 1488 1487 1485 1483 1480 1478 1477 1476 1475 1473 1472 1471 1472 1472 1473 1473 1471 1469 1469 1468 1462 1460 1463 1464 1463 1464 1463 1463 1464 1466 1468 1470 1480 1486 1497 1508 1495 1509 1469 1462 1464 1466 1463 1464
1483 1485 1486 1486 1485 1485 1483 1481 1480 1479 1478 1477 1475 1473 1471 1475 1475 1473 1473 1471 1469 1468 1468 1466 1464 1464 1464 1465 1468 1470 1475 1469 1467 1468 1470 1471 1479 1495 1504 1511 1482 1458 1459 1461 1462 1459 1454
1480 1483 1484 1484 1483 1484 1482 1481 1481 1480 1479 1478 1477 1475 1474 1474 1475 1474 1473 1472 1473 1472 1470 1467 1465 1464 1465 1467 1469 1474 1479 1473 1473 1469 1469 1470 1471 1485 1494 1488 1487 1467 1458 1457 1458 1464 1450
1478 1481 1482 1482 1482 1481 1481 1481 1481 1480 1480 1479 1478 1476 1475 1475 1475 1475 1473 1475 1474 1475 1472 1470 1468 1466 1465 1469 1472 1475 1481 1471 1470 1469 1472 1473 1475 1485 1487 1482 1476 1460 1457 1457 1469 1464 1449
1475 1478 1480 1481 1481 1480 1480 1480 1480 1480 1479 1479 1479 1478 1477 1476 1475 1474 1476 1477 1476 1475 1474 1471 1470 1469 1469 1470 1472 1473 1477 1471 1472 1466 1471 1474 1478 1476 1476 1480 1485 1456 1457 1460 1457 1450 1449
1472 1475 1477 1478 1479 1479 1479 1479 1479 1479 1478 1479 1480 1479 1476 1476 1477 1476 1475 1473 1474 1476 1476 1475 1475 1476 1474 1471 1474 1475 1473 1475 1474 1473 1469 1473 1469 1472 1471 1469 1455 1454 1454 1452 1452 1450 1448